| time (UTC) | temp F | wind direction | speed MPH | gust MPH | rain 1hr in | rain 24hr in | rain mn in | humidity % | barometer mb |
| 20260504130345 | 57 | 229 | 6.0 | 14.0 | 0.00 | 0.00 | 0.00 | 47 | 1014.7 |
| 20260504120311 | 52 | 223 | 3.0 | 10.0 | 0.00 | 0.00 | 0.00 | 55 | 1015.0 |
| 20260504110332 | 47 | 360 | 1.0 | 3.0 | 0.00 | 0.00 | 0.00 | 57 | 1015.1 |
| 20260504100322 | 45 | 360 | 0.0 | 4.0 | 0.00 | 0.00 | 0.00 | 52 | 1015.2 |
| 20260504081835 | 47 | 5 | 1.0 | 4.0 | 0.00 | 0.00 | 0.00 | 48 | 1015.2 |
| 20260504081515 | 46 | 5 | 0.0 | 4.0 | 0.00 | 0.00 | 0.00 | 47 | 1015.3 |
| 20260504081345 | 47 | 5 | 1.0 | 4.0 | 0.00 | 0.00 | 0.00 | 47 | 1015.2 |
| 20260504080819 | 47 | 9 | 1.0 | 4.0 | 0.00 | 0.00 | 0.00 | 47 | 1015.1 |
| 20260504080329 | 47 | 5 | 2.0 | 5.0 | 0.00 | 0.00 | 0.00 | 46 | 1015.1 |
| 20260504070332 | 46 | 360 | 1.0 | 3.0 | 0.00 | 0.00 | 0.00 | 43 | 1015.1 |
| 20260504050314 | 43 | 11 | 0.0 | 1.0 | 0.00 | 0.00 | 0.00 | 50 | 1015.1 |
| 20260504045846 | 44 | 11 | 0.0 | 1.0 | 0.00 | 0.00 | 0.00 | 50 | 1015.1 |
| 20260504045309 | 44 | 13 | 0.0 | 1.0 | 0.00 | 0.00 | 0.00 | 50 | 1015.1 |
| 20260504044813 | 44 | 10 | 0.0 | 0.0 | 0.00 | 0.00 | 0.00 | 49 | 1015.1 |
| 20260504044522 | 44 | 10 | 0.0 | 0.0 | 0.00 | 0.00 | 0.00 | 49 | 1015.0 |
| 20260504044325 | 44 | 10 | 0.0 | 0.0 | 0.00 | 0.00 | 0.00 | 49 | 1015.0 |
| 20260504043829 | 44 | 10 | 0.0 | 1.0 | 0.00 | 0.00 | 0.00 | 49 | 1015.0 |
| 20260504043314 | 45 | 10 | 0.0 | 1.0 | 0.00 | 0.00 | 0.00 | 49 | 1014.9 |
| 20260504043037 | 44 | 11 | 0.0 | 1.0 | 0.00 | 0.00 | 0.00 | 48 | 1015.0 |
| 20260504042819 | 45 | 11 | 0.0 | 1.0 | 0.00 | 0.00 | 0.00 | 48 | 1014.8 |
| 20260504042331 | 45 | 5 | 0.0 | 0.0 | 0.00 | 0.00 | 0.00 | 48 | 1014.7 |
| 20260504041814 | 45 | 5 | 0.0 | 1.0 | 0.00 | 0.00 | 0.00 | 47 | 1014.7 |
| 20260504041534 | 45 | 5 | 0.0 | 1.0 | 0.00 | 0.00 | 0.00 | 47 | 1014.9 |
| 20260504041323 | 45 | 5 | 0.0 | 1.0 | 0.00 | 0.00 | 0.00 | 47 | 1014.7 |
| 20260504040848 | 45 | 5 | 0.0 | 1.0 | 0.00 | 0.00 | 0.00 | 46 | 1014.7 |
| 20260504040311 | 46 | 5 | 0.0 | 1.0 | 0.00 | 0.00 | 0.00 | 46 | 1014.6 |
| 20260504040012 | 45 | 5 | 0.0 | 1.0 | 0.00 | 0.00 | 0.00 | 46 | 1014.8 |
| 20260504035841 | 46 | 5 | 0.0 | 1.0 | 0.00 | 0.00 | 0.00 | 46 | 1014.7 |
| 20260504035352 | 46 | 5 | 0.0 | 1.0 | 0.00 | 0.00 | 0.00 | 45 | 1014.6 |
| 20260504034816 | 46 | 9 | 0.0 | 0.0 | 0.00 | 0.00 | 0.00 | 44 | 1014.6 |
| 20260504034552 | 46 | 9 | 0.0 | 0.0 | 0.00 | 0.00 | 0.00 | 44 | 1014.7 |
| 20260504034319 | 47 | 9 | 0.0 | 0.0 | 0.00 | 0.00 | 0.00 | 44 | 1014.6 |
| 20260504033830 | 47 | 9 | 0.0 | 1.0 | 0.00 | 0.00 | 0.00 | 43 | 1014.5 |
| 20260504033335 | 47 | 9 | 0.0 | 1.0 | 0.00 | 0.00 | 0.00 | 43 | 1014.6 |
| 20260504033045 | 47 | 9 | 0.0 | 0.0 | 0.00 | 0.00 | 0.00 | 42 | 1014.6 |
| 20260504032818 | 48 | 9 | 0.0 | 1.0 | 0.00 | 0.00 | 0.00 | 42 | 1014.5 |
| 20260504032329 | 48 | 9 | 0.0 | 1.0 | 0.00 | 0.00 | 0.00 | 41 | 1014.5 |
| 20260504031834 | 48 | 9 | 0.0 | 1.0 | 0.00 | 0.00 | 0.00 | 41 | 1014.4 |
| 20260504031545 | 48 | 9 | 0.0 | 1.0 | 0.00 | 0.00 | 0.00 | 40 | 1014.6 |
| 20260504031322 | 48 | 9 | 0.0 | 2.0 | 0.00 | 0.00 | 0.00 | 40 | 1014.5 |
| 20260504030827 | 49 | 9 | 0.0 | 2.0 | 0.00 | 0.00 | 0.00 | 40 | 1014.5 |
| 20260504030312 | 49 | 9 | 0.0 | 1.0 | 0.00 | 0.00 | 0.00 | 39 | 1014.3 |
| 20260504030041 | 49 | 9 | 0.0 | 2.0 | 0.00 | 0.00 | 0.00 | 39 | 1014.5 |
| 20260504025816 | 49 | 9 | 0.0 | 2.0 | 0.00 | 0.00 | 0.00 | 39 | 1014.4 |
| 20260504025326 | 49 | 9 | 0.0 | 2.0 | 0.00 | 0.00 | 0.00 | 38 | 1014.4 |
| 20260504024811 | 50 | 9 | 0.0 | 1.0 | 0.00 | 0.00 | 0.00 | 37 | 1014.4 |
| 20260504024554 | 49 | 9 | 0.0 | 1.0 | 0.00 | 0.00 | 0.00 | 37 | 1014.5 |
| 20260504024316 | 50 | 9 | 0.0 | 2.0 | 0.00 | 0.00 | 0.00 | 37 | 1014.4 |
| 20260504023820 | 50 | 9 | 0.0 | 2.0 | 0.00 | 0.00 | 0.00 | 36 | 1014.4 |
| 20260504023331 | 50 | 9 | 0.0 | 3.0 | 0.00 | 0.00 | 0.00 | 36 | 1014.6 |
| 20260504023007 | 50 | 9 | 0.0 | 3.0 | 0.00 | 0.00 | 0.00 | 35 | 1014.6 |
| 20260504022815 | 51 | 9 | 1.0 | 3.0 | 0.00 | 0.00 | 0.00 | 34 | 1014.4 |
| 20260504022321 | 51 | 10 | 0.0 | 3.0 | 0.00 | 0.00 | 0.00 | 33 | 1014.5 |
| 20260504021852 | 51 | 11 | 2.0 | 3.0 | 0.00 | 0.00 | 0.00 | 33 | 1014.5 |
| 20260504021612 | 51 | 5 | 1.0 | 2.0 | 0.00 | 0.00 | 0.00 | 34 | 1014.7 |
| 20260504021314 | 51 | 5 | 0.0 | 2.0 | 0.00 | 0.00 | 0.00 | 34 | 1014.5 |
| 20260504020819 | 52 | 5 | 0.0 | 2.0 | 0.00 | 0.00 | 0.00 | 33 | 1014.5 |
| 20260504020330 | 52 | 5 | 0.0 | 4.0 | 0.00 | 0.00 | 0.00 | 33 | 1014.5 |
| 20260504020007 | 51 | 5 | 0.0 | 4.0 | 0.00 | 0.00 | 0.00 | 31 | 1014.5 |
| 20260504015815 | 52 | 9 | 2.0 | 4.0 | 0.00 | 0.00 | 0.00 | 31 | 1014.4 |
| 20260504015348 | 52 | 5 | 2.0 | 4.0 | 0.00 | 0.00 | 0.00 | 31 | 1014.4 |
| 20260504014811 | 52 | 360 | 1.0 | 3.0 | 0.00 | 0.00 | 0.00 | 32 | 1014.4 |
| 20260504014600 | 52 | 360 | 0.0 | 3.0 | 0.00 | 0.00 | 0.00 | 32 | 1014.5 |
| 20260504014314 | 53 | 360 | 1.0 | 4.0 | 0.00 | 0.00 | 0.00 | 31 | 1014.4 |
| 20260504013845 | 53 | 360 | 1.0 | 4.0 | 0.00 | 0.00 | 0.00 | 30 | 1014.3 |
| 20260504013328 | 53 | 360 | 2.0 | 4.0 | 0.00 | 0.00 | 0.00 | 30 | 1014.3 |
| 20260504013056 | 53 | 360 | 0.0 | 3.0 | 0.00 | 0.00 | 0.00 | 30 | 1014.5 |
| 20260504012811 | 53 | 360 | 1.0 | 3.0 | 0.00 | 0.00 | 0.00 | 30 | 1014.4 |
| 20260504012316 | 54 | 360 | 1.0 | 3.0 | 0.00 | 0.00 | 0.00 | 29 | 1014.3 |
| 20260504011827 | 54 | 360 | 1.0 | 4.0 | 0.00 | 0.00 | 0.00 | 28 | 1014.1 |
| 20260504011604 | 53 | 360 | 0.0 | 4.0 | 0.00 | 0.00 | 0.00 | 28 | 1014.1 |
| 20260504011309 | 54 | 360 | 2.0 | 4.0 | 0.00 | 0.00 | 0.00 | 28 | 1014.0 |
| 20260504010814 | 54 | 5 | 2.0 | 5.0 | 0.00 | 0.00 | 0.00 | 28 | 1014.0 |
| 20260504010345 | 54 | 360 | 1.0 | 5.0 | 0.00 | 0.00 | 0.00 | 28 | 1013.9 |
| 20260504010047 | 54 | 360 | 2.0 | 5.0 | 0.00 | 0.00 | 0.00 | 28 | 1014.0 |
| 20260504005828 | 54 | 360 | 1.0 | 4.0 | 0.00 | 0.00 | 0.00 | 28 | 1013.9 |
| 20260504005339 | 55 | 360 | 2.0 | 5.0 | 0.00 | 0.00 | 0.00 | 27 | 1013.8 |
| 20260504004822 | 55 | 360 | 2.0 | 5.0 | 0.00 | 0.00 | 0.00 | 26 | 1013.9 |
| 20260504004542 | 54 | 360 | 1.0 | 5.0 | 0.00 | 0.00 | 0.00 | 26 | 1013.9 |
| 20260504004327 | 55 | 360 | 2.0 | 4.0 | 0.00 | 0.00 | 0.00 | 26 | 1013.8 |
| 20260504003811 | 55 | 360 | 1.0 | 3.0 | 0.00 | 0.00 | 0.00 | 26 | 1013.8 |
| 20260504003322 | 56 | 360 | 1.0 | 3.0 | 0.00 | 0.00 | 0.00 | 26 | 1013.5 |
| 20260504003055 | 55 | 360 | 1.0 | 4.0 | 0.00 | 0.00 | 0.00 | 26 | 1013.7 |
| 20260504002826 | 56 | 360 | 1.0 | 4.0 | 0.00 | 0.00 | 0.00 | 25 | 1013.4 |
| 20260504002338 | 56 | 360 | 1.0 | 4.0 | 0.00 | 0.00 | 0.00 | 25 | 1013.5 |
| 20260504001820 | 56 | 360 | 1.0 | 8.0 | 0.00 | 0.00 | 0.00 | 24 | 1013.4 |
| 20260504001606 | 56 | 360 | 1.0 | 8.0 | 0.00 | 0.00 | 0.00 | 24 | 1013.6 |
| 20260504001322 | 57 | 360 | 2.0 | 8.0 | 0.00 | 0.00 | 0.00 | 24 | 1013.3 |
| 20260504000834 | 57 | 360 | 1.0 | 6.0 | 0.00 | 0.00 | 0.00 | 24 | 1013.4 |
| 20260504000319 | 57 | 360 | 4.0 | 6.0 | 0.00 | 0.00 | 0.00 | 23 | 1013.3 |
| 20260504000054 | 57 | 360 | 1.0 | 6.0 | 0.00 | 0.00 | 0.00 | 23 | 1013.4 |
| 20260503235823 | 57 | 5 | 2.0 | 8.0 | 0.00 | 0.00 | 0.00 | 23 | 1013.3 |
| 20260503235334 | 58 | 360 | 3.0 | 9.0 | 0.00 | 0.00 | 0.00 | 22 | 1013.2 |
| 20260503234819 | 58 | 360 | 3.0 | 10.0 | 0.00 | 0.00 | 0.00 | 22 | 1013.2 |
| 20260503234509 | 58 | 360 | 5.0 | 10.0 | 0.00 | 0.00 | 0.00 | 22 | 1013.3 |
| 20260503234324 | 58 | 360 | 3.0 | 10.0 | 0.00 | 0.00 | 0.00 | 22 | 1013.1 |
| 20260503233827 | 58 | 360 | 4.0 | 8.0 | 0.00 | 0.00 | 0.00 | 22 | 1013.1 |
| 20260503233312 | 59 | 360 | 4.0 | 11.0 | 0.00 | 0.00 | 0.00 | 22 | 1013.0 |
| 20260503233019 | 58 | 360 | 2.0 | 11.0 | 0.00 | 0.00 | 0.00 | 22 | 1013.2 |
| 20260503232822 | 59 | 55 | 3.0 | 11.0 | 0.00 | 0.00 | 0.00 | 21 | 1013.1 |
| 20260503232326 | 59 | 360 | 4.0 | 16.0 | 0.00 | 0.00 | 0.00 | 21 | 1013.1 |
| 20260503231809 | 59 | 360 | 10.0 | 16.0 | 0.00 | 0.00 | 0.00 | 21 | 1013.0 |
| 20260503231519 | 59 | 360 | 7.0 | 13.0 | 0.00 | 0.00 | 0.00 | 20 | 1013.2 |
| 20260503231315 | 59 | 360 | 6.0 | 15.0 | 0.00 | 0.00 | 0.00 | 20 | 1013.1 |
| 20260503230820 | 59 | 360 | 5.0 | 16.0 | 0.00 | 0.00 | 0.00 | 20 | 1013.0 |
| 20260503230325 | 59 | 360 | 9.0 | 16.0 | 0.00 | 0.00 | 0.00 | 20 | 1013.0 |
| 20260503230031 | 59 | 360 | 7.0 | 14.0 | 0.00 | 0.00 | 0.00 | 20 | 1013.1 |
| 20260503225834 | 60 | 69 | 6.0 | 12.0 | 0.00 | 0.00 | 0.00 | 20 | 1012.9 |
| 20260503225319 | 60 | 360 | 4.0 | 15.0 | 0.00 | 0.00 | 0.00 | 20 | 1012.9 |
| 20260503224824 | 60 | 360 | 5.0 | 13.0 | 0.00 | 0.00 | 0.00 | 20 | 1012.9 |
| 20260503224549 | 59 | 360 | 6.0 | 13.0 | 0.00 | 0.00 | 0.00 | 20 | 1013.0 |
| 20260503224312 | 60 | 61 | 5.0 | 20.0 | 0.00 | 0.00 | 0.00 | 20 | 1013.0 |
| 20260503223817 | 60 | 5 | 7.0 | 20.0 | 0.00 | 0.00 | 0.00 | 19 | 1012.9 |
| 20260503223328 | 60 | 88 | 7.0 | 18.0 | 0.00 | 0.00 | 0.00 | 19 | 1012.8 |
| 20260503223101 | 59 | 80 | 5.0 | 16.0 | 0.00 | 0.00 | 0.00 | 20 | 1013.1 |
| 20260503222812 | 60 | 58 | 6.0 | 16.0 | 0.00 | 0.00 | 0.00 | 19 | 1012.8 |
| 20260503222316 | 60 | 360 | 7.0 | 14.0 | 0.00 | 0.00 | 0.00 | 19 | 1012.9 |
| 20260503221827 | 60 | 360 | 7.0 | 18.0 | 0.00 | 0.00 | 0.00 | 19 | 1013.0 |
| 20260503221503 | 59 | 11 | 10.0 | 18.0 | 0.00 | 0.00 | 0.00 | 18 | 1013.0 |
| 20260503221311 | 60 | 360 | 7.0 | 17.0 | 0.00 | 0.00 | 0.00 | 19 | 1012.9 |
| 20260503220814 | 60 | 360 | 9.0 | 17.0 | 0.00 | 0.00 | 0.00 | 19 | 1012.9 |
| 20260503220319 | 60 | 355 | 4.0 | 21.0 | 0.00 | 0.00 | 0.00 | 19 | 1012.9 |
| 20260503220018 | 59 | 5 | 5.0 | 21.0 | 0.00 | 0.00 | 0.00 | 19 | 1013.1 |
| 20260503215829 | 60 | 51 | 7.0 | 21.0 | 0.00 | 0.00 | 0.00 | 19 | 1012.9 |
| 20260503215313 | 60 | 360 | 9.0 | 16.0 | 0.00 | 0.00 | 0.00 | 19 | 1012.9 |
| 20260503214817 | 60 | 360 | 4.0 | 17.0 | 0.00 | 0.00 | 0.00 | 19 | 1012.9 |
| 20260503214535 | 59 | 360 | 11.0 | 17.0 | 0.00 | 0.00 | 0.00 | 18 | 1013.0 |
| 20260503214328 | 60 | 360 | 12.0 | 17.0 | 0.00 | 0.00 | 0.00 | 18 | 1012.8 |
| 20260503213813 | 60 | 5 | 12.0 | 18.0 | 0.00 | 0.00 | 0.00 | 18 | 1012.8 |
| 20260503213336 | 60 | 360 | 7.0 | 15.0 | 0.00 | 0.00 | 0.00 | 18 | 1012.9 |
| 20260503213037 | 60 | 360 | 8.0 | 14.0 | 0.00 | 0.00 | 0.00 | 18 | 1013.0 |
| 20260503212826 | 60 | 360 | 9.0 | 14.0 | 0.00 | 0.00 | 0.00 | 18 | 1012.7 |
| 20260503212309 | 60 | 360 | 6.0 | 20.0 | 0.00 | 0.00 | 0.00 | 18 | 1012.8 |
| 20260503211814 | 60 | 360 | 6.0 | 22.0 | 0.00 | 0.00 | 0.00 | 18 | 1012.8 |
| 20260503211557 | 59 | 360 | 8.0 | 22.0 | 0.00 | 0.00 | 0.00 | 19 | 1012.9 |
| 20260503211324 | 59 | 360 | 11.0 | 22.0 | 0.00 | 0.00 | 0.00 | 18 | 1012.8 |
| 20260503210829 | 59 | 111 | 10.0 | 21.0 | 0.00 | 0.00 | 0.00 | 19 | 1012.8 |
| 20260503210313 | 59 | 360 | 11.0 | 21.0 | 0.00 | 0.00 | 0.00 | 18 | 1012.8 |
| 20260503210040 | 59 | 360 | 11.0 | 24.0 | 0.00 | 0.00 | 0.00 | 17 | 1013.0 |
| 20260503205817 | 60 | 360 | 11.0 | 24.0 | 0.00 | 0.00 | 0.00 | 18 | 1012.8 |
| 20260503205327 | 59 | 360 | 10.0 | 24.0 | 0.00 | 0.00 | 0.00 | 19 | 1012.8 |
| 20260503204813 | 60 | 59 | 7.0 | 17.0 | 0.00 | 0.00 | 0.00 | 20 | 1012.9 |
| 20260503204615 | 59 | 360 | 10.0 | 17.0 | 0.00 | 0.00 | 0.00 | 18 | 1013.0 |
| 20260503204316 | 60 | 360 | 10.0 | 18.0 | 0.00 | 0.00 | 0.00 | 18 | 1012.8 |
| 20260503203822 | 59 | 5 | 7.0 | 23.0 | 0.00 | 0.00 | 0.00 | 19 | 1012.9 |
| 20260503203333 | 60 | 360 | 12.0 | 23.0 | 0.00 | 0.00 | 0.00 | 19 | 1012.9 |
| 20260503203014 | 59 | 65 | 9.0 | 21.0 | 0.00 | 0.00 | 0.00 | 19 | 1013.1 |
| 20260503202816 | 59 | 146 | 9.0 | 20.0 | 0.00 | 0.00 | 0.00 | 19 | 1012.8 |
| 20260503202321 | 59 | 360 | 6.0 | 21.0 | 0.00 | 0.00 | 0.00 | 19 | 1012.9 |
| 20260503201824 | 59 | 360 | 10.0 | 21.0 | 0.00 | 0.00 | 0.00 | 19 | 1013.0 |
| 20260503201511 | 58 | 360 | 5.0 | 19.0 | 0.00 | 0.00 | 0.00 | 20 | 1013.2 |
| 20260503201314 | 59 | 360 | 6.0 | 19.0 | 0.00 | 0.00 | 0.00 | 20 | 1013.0 |
| 20260503200818 | 58 | 58 | 8.0 | 24.0 | 0.00 | 0.00 | 0.00 | 21 | 1013.1 |
| 20260503200323 | 59 | 360 | 11.0 | 24.0 | 0.00 | 0.00 | 0.00 | 19 | 1013.1 |
| 20260503200025 | 59 | 360 | 11.0 | 24.0 | 0.00 | 0.00 | 0.00 | 19 | 1013.3 |
| 20260503195833 | 59 | 360 | 7.0 | 19.0 | 0.00 | 0.00 | 0.00 | 20 | 1013.1 |
| 20260503195318 | 58 | 360 | 9.0 | 23.0 | 0.00 | 0.00 | 0.00 | 20 | 1013.2 |
| 20260503194823 | 58 | 360 | 9.0 | 26.0 | 0.00 | 0.00 | 0.00 | 21 | 1013.2 |
| 20260503194541 | 57 | 360 | 12.0 | 26.0 | 0.00 | 0.00 | 0.00 | 20 | 1013.5 |
| 20260503194327 | 58 | 360 | 15.0 | 25.0 | 0.00 | 0.00 | 0.00 | 20 | 1013.3 |
| 20260503193813 | 58 | 5 | 6.0 | 15.0 | 0.00 | 0.00 | 0.00 | 20 | 1013.4 |
| 20260503193343 | 58 | 360 | 9.0 | 16.0 | 0.00 | 0.00 | 0.00 | 20 | 1013.4 |
| 20260503193034 | 58 | 360 | 9.0 | 16.0 | 0.00 | 0.00 | 0.00 | 20 | 1013.7 |
| 20260503192832 | 58 | 67 | 8.0 | 16.0 | 0.00 | 0.00 | 0.00 | 21 | 1013.5 |
| 20260503192317 | 58 | 360 | 10.0 | 20.0 | 0.00 | 0.00 | 0.00 | 20 | 1013.4 |
| 20260503191821 | 58 | 360 | 12.0 | 24.0 | 0.00 | 0.00 | 0.00 | 19 | 1013.5 |
| 20260503191601 | 58 | 360 | 7.0 | 24.0 | 0.00 | 0.00 | 0.00 | 19 | 1013.6 |
| 20260503191324 | 58 | 360 | 13.0 | 24.0 | 0.00 | 0.00 | 0.00 | 20 | 1013.3 |
| 20260503190834 | 58 | 360 | 8.0 | 19.0 | 0.00 | 0.00 | 0.00 | 19 | 1013.4 |
| 20260503190317 | 57 | 63 | 12.0 | 19.0 | 0.00 | 0.00 | 0.00 | 20 | 1013.6 |
| 20260503190049 | 57 | 360 | 7.0 | 21.0 | 0.00 | 0.00 | 0.00 | 20 | 1013.7 |
| 20260503185821 | 58 | 360 | 8.0 | 22.0 | 0.00 | 0.00 | 0.00 | 20 | 1013.5 |
| 20260503185331 | 57 | 360 | 14.0 | 23.0 | 0.00 | 0.00 | 0.00 | 19 | 1013.7 |
| 20260503184815 | 57 | 360 | 12.0 | 23.0 | 0.00 | 0.00 | 0.00 | 19 | 1013.7 |
| 20260503184502 | 57 | 9 | 11.0 | 21.0 | 0.00 | 0.00 | 0.00 | 20 | 1013.7 |
| 20260503184319 | 57 | 360 | 11.0 | 21.0 | 0.00 | 0.00 | 0.00 | 19 | 1013.8 |
| 20260503183849 | 58 | 360 | 7.0 | 19.0 | 0.00 | 0.00 | 0.00 | 19 | 1013.7 |
| 20260503183311 | 57 | 360 | 11.0 | 22.0 | 0.00 | 0.00 | 0.00 | 20 | 1013.8 |
| 20260503183104 | 57 | 360 | 10.0 | 22.0 | 0.00 | 0.00 | 0.00 | 20 | 1013.7 |
| 20260503182816 | 57 | 360 | 13.0 | 22.0 | 0.00 | 0.00 | 0.00 | 20 | 1013.9 |
| 20260503182319 | 57 | 360 | 9.0 | 19.0 | 0.00 | 0.00 | 0.00 | 20 | 1013.8 |
| 20260503181830 | 57 | 5 | 10.0 | 22.0 | 0.00 | 0.00 | 0.00 | 20 | 1013.8 |
| 20260503181611 | 56 | 121 | 10.0 | 22.0 | 0.00 | 0.00 | 0.00 | 21 | 1014.1 |
| 20260503181332 | 56 | 360 | 10.0 | 20.0 | 0.00 | 0.00 | 0.00 | 21 | 1013.9 |
| 20260503180822 | 56 | 360 | 9.0 | 24.0 | 0.00 | 0.00 | 0.00 | 20 | 1013.9 |
| 20260503180049 | 56 | 76 | 12.0 | 18.0 | 0.00 | 0.00 | 0.00 | 20 | 1014.0 |
| 20260503175815 | 56 | 360 | 11.0 | 18.0 | 0.00 | 0.00 | 0.00 | 20 | 1013.8 |
| 20260503175320 | 56 | 65 | 9.0 | 21.0 | 0.00 | 0.00 | 0.00 | 19 | 1013.9 |
| 20260503174831 | 56 | 360 | 9.0 | 20.0 | 0.00 | 0.00 | 0.00 | 21 | 1014.0 |
| 20260503174508 | 55 | 360 | 11.0 | 26.0 | 0.00 | 0.00 | 0.00 | 20 | 1014.1 |
| 20260503174315 | 55 | 360 | 9.0 | 26.0 | 0.00 | 0.00 | 0.00 | 21 | 1014.1 |
| 20260503173848 | 55 | 5 | 18.0 | 26.0 | 0.00 | 0.00 | 0.00 | 21 | 1013.9 |
| 20260503173321 | 55 | 360 | 12.0 | 24.0 | 0.00 | 0.00 | 0.00 | 21 | 1013.9 |
| 20260503173107 | 55 | 360 | 13.0 | 24.0 | 0.00 | 0.00 | 0.00 | 21 | 1014.0 |
| 20260503172824 | 55 | 71 | 14.0 | 24.0 | 0.00 | 0.00 | 0.00 | 20 | 1013.9 |
| 20260503172335 | 56 | 360 | 15.0 | 21.0 | 0.00 | 0.00 | 0.00 | 20 | 1014.0 |
| 20260503171820 | 55 | 360 | 7.0 | 18.0 | 0.00 | 0.00 | 0.00 | 21 | 1014.2 |
| 20260503171603 | 55 | 360 | 5.0 | 18.0 | 0.00 | 0.00 | 0.00 | 21 | 1014.3 |
| 20260503171320 | 55 | 360 | 11.0 | 18.0 | 0.00 | 0.00 | 0.00 | 22 | 1014.2 |
| 20260503170830 | 55 | 5 | 9.0 | 22.0 | 0.00 | 0.00 | 0.00 | 21 | 1014.1 |
| 20260503170315 | 54 | 360 | 9.0 | 22.0 | 0.00 | 0.00 | 0.00 | 22 | 1014.3 |
| 20260503150831 | 52 | 360 | 7.0 | 13.0 | 0.00 | 0.00 | 0.00 | 29 | 1014.9 |
| 20260503150336 | 51 | 360 | 8.0 | 19.0 | 0.00 | 0.00 | 0.00 | 30 | 1014.8 |